This is the latest recevied weather packets stored in our database for station/object YF9UAG-15. If no packets are shown the sender has not sent any weather packets the latest 10 day(s).
| Time | Temp. | Humidity | Pressure | Rain* | Wind** | Luminosity | Snow |
|---|---|---|---|---|---|---|---|
| 1777710117 | 30.56° C | 93% | 1004.6 hPa | - | - | - | - |
| 1777709996 | 31.11° C | 93% | 1004.6 hPa | - | - | - | - |
| 1777709875 | 31.11° C | 92% | 1004.7 hPa | - | - | - | - |
| 1777709754 | 31.11° C | 93% | 1004.7 hPa | - | - | - | - |
| 1777709633 | 31.11° C | 93% | 1004.7 hPa | - | - | - | - |
| 1777709512 | 31.11° C | 93% | 1004.7 hPa | - | - | - | - |
| 1777709391 | 31.11° C | 92% | 1004.7 hPa | - | - | - | - |
| 1777709270 | 31.11° C | 93% | 1004.7 hPa | - | - | - | - |
| 1777709150 | 31.11° C | 93% | 1004.7 hPa | - | - | - | - |
| 1777709029 | 31.11° C | 92% | 1004.7 hPa | - | - | - | - |
| 1777708908 | 31.11° C | 92% | 1004.7 hPa | - | - | - | - |
| 1777708787 | 31.11° C | 92% | 1004.8 hPa | - | - | - | - |
| 1777708666 | 31.11° C | 90% | 1004.7 hPa | - | - | - | - |
| 1777708545 | 31.11° C | 90% | 1004.7 hPa | - | - | - | - |
| 1777708424 | 31.67° C | 88% | 1004.7 hPa | - | - | - | - |
| 1777708303 | 31.67° C | 90% | 1004.6 hPa | - | - | - | - |
| 1777708182 | 31.67° C | 88% | 1004.5 hPa | - | - | - | - |
| 1777708061 | 31.67° C | 85% | 1004.3 hPa | - | - | - | - |
| 1777707940 | 31.67° C | 85% | 1004.5 hPa | - | - | - | - |
| 1777707819 | 32.22° C | 84% | 1004.4 hPa | - | - | - | - |
| 1777707698 | 31.67° C | 85% | 1004.3 hPa | - | - | - | - |
| 1777707577 | 32.22° C | 84% | 1004.3 hPa | - | - | - | - |
| 1777707456 | 31.67° C | 84% | 1004.2 hPa | - | - | - | - |
| 1777707335 | 31.67° C | 84% | 1004.1 hPa | - | - | - | - |
| 1777707214 | 32.22° C | 81% | 1004.2 hPa | - | - | - | - |
* Rain since midnight (hover to see other rain measurements)
** Current wind speed in m/s (hover to see current wind gust speed)